7L2IWN-13 Weather Reports


Display with metric or nautical units.
time (UTC)temp
F
wind
direction
speed
MPH
gust
MPH
rain 1hr
in
rain 24hr
in
rain mn
in
humidity
%
barometer
mb
20260831110004 73 293 0.0 1.0 0.00 0.00 0.00 99 1016.1
20260831104804 73 293 2.0 3.0 0.00 0.00 0.00 99 1015.8
20260831103602 74 258 0.0 0.0 0.00 0.00 0.00 99 1015.5
20260831102402 74 248 2.0 2.0 0.00 0.00 0.00 99 1015.5
20260831101203 74 299 0.0 0.0 0.00 0.00 0.00 99 1015.3
20260831100003 74 299 2.0 2.0 0.00 0.00 0.00 99 1015.0
20260831094802 74 275 1.0 2.0 0.00 0.00 0.00 99 1014.8
20260831093602 74 249 1.0 1.0 0.00 0.00 0.00 99 1014.7
20260831092402 74 268 2.0 3.0 0.00 0.00 0.00 99 1014.7
20260831091202 74 247 2.0 3.0 0.00 0.00 0.00 99 1014.7
20260831090001 75 216 2.0 2.0 0.00 0.00 0.00 99 1014.3
20260831084802 75 233 1.0 2.0 0.00 0.00 0.00 98 1014.2
20260831083603 75 259 3.0 3.0 0.00 0.00 0.00 97 1014.1
20260831082402 75 223 2.0 5.0 0.00 0.00 0.00 97 1013.9
20260831081202 75 213 3.0 5.0 0.00 0.00 0.00 97 1014.2
20260831080003 75 206 3.0 5.0 0.00 0.00 0.00 98 1013.7
20260831074803 76 288 2.0 3.0 0.00 0.00 0.00 97 1013.4
20260831073602 76 282 5.0 5.0 0.00 0.00 0.00 96 1013.8
20260831072403 76 295 5.0 6.0 0.00 0.00 0.00 96 1013.4
20260831071203 76 245 3.0 5.0 0.00 0.00 0.00 95 1013.6
20260831070002 76 251 2.0 3.0 0.00 0.00 0.00 95 1013.5
20260831064804 76 238 3.0 5.0 0.00 0.00 0.00 95 1013.7
20260831063603 76 205 2.0 5.0 0.00 0.00 0.00 94 1013.5
20260831062403 76 241 2.0 3.0 0.00 0.00 0.00 94 1013.3
20260831061204 77 207 3.0 5.0 0.00 0.00 0.00 94 1013.5
20260831060002 77 296 3.0 6.0 0.00 0.00 0.00 93 1013.5
20260831054802 77 308 2.0 3.0 0.00 0.00 0.00 93 1013.1
20260831053603 77 339 1.0 2.0 0.00 0.00 0.00 93 1013.3
20260831052403 77 5 1.0 2.0 0.00 0.00 0.00 92 1013.4
20260831051204 77 346 1.0 2.0 0.00 0.00 0.00 91 1013.4
20260831050003 77 7 2.0 5.0 0.00 0.00 0.00 91 1013.4
20260831044802 78 8 3.0 6.0 0.00 0.00 0.00 90 1013.5
20260831043602 79 24 3.0 6.0 0.00 0.00 0.00 89 1013.6
20260831042402 79 30 5.0 7.0 0.00 0.00 0.00 87 1013.1
20260831041202 80 68 2.0 3.0 0.00 0.00 0.00 86 1013.4
20260831040002 80 268 2.0 3.0 0.00 0.00 0.00 85 1013.3
20260831034800 80 340 2.0 5.0 0.00 0.00 0.00 85 1013.4
20260831033602 78 301 2.0 2.0 0.00 0.00 0.00 89 1013.3
20260831032402 78 321 2.0 3.0 0.00 0.00 0.00 89 1013.7
20260831031202 78 348 2.0 3.0 0.00 0.00 0.00 89 1013.6
20260831030001 76 312 2.0 3.0 0.00 0.00 0.00 89 1013.9
20260831024802 77 226 0.0 0.0 0.00 0.00 0.00 88 1013.8
20260831023603 76 290 2.0 3.0 0.00 0.00 0.00 91 1014.0
20260831022403 75 265 2.0 3.0 0.00 0.00 0.00 94 1014.1
20260831021202 74 227 2.0 3.0 0.00 0.00 0.00 95 1014.3
20260831020001 74 200 3.0 5.0 0.00 0.00 0.00 95 1014.2
20260831014801 74 213 3.0 5.0 0.00 0.00 0.00 95 1014.4
20260831013603 74 267 2.0 3.0 0.00 0.00 0.00 95 1014.2
20260831012402 74 324 0.0 1.0 0.00 0.00 0.00 96 1014.2
20260831011202 74 337 2.0 3.0 0.00 0.00 0.00 97 1014.3
20260831010003 74 286 3.0 5.0 0.00 0.00 0.00 97 1014.0
20260831004802 74 284 2.0 3.0 0.00 0.00 0.00 96 1013.9
20260831003604 74 301 3.0 5.0 0.00 0.00 0.00 96 1013.5
20260831002403 74 289 3.0 3.0 0.00 0.00 0.00 95 1014.0
20260831001203 74 222 1.0 2.0 0.00 0.00 0.00 95 1013.5
20260831000004 75 357 0.0 0.0 0.00 0.00 0.00 94 1013.5
20260830234804 74 288 1.0 2.0 0.00 0.00 0.00 96 1013.5
20260830233605 73 138 2.0 3.0 0.00 0.00 0.00 98 1013.1
20260830232404 73 125 1.0 2.0 0.00 0.00 0.00 99 1013.3
20260830231204 72 53 0.0 0.0 0.00 0.00 0.00 99 1013.6
20260830230003 72 39 0.0 1.0 0.00 0.00 0.00 99 1013.2
20260830224803 72 29 1.0 3.0 0.00 0.00 0.00 99 1013.0
20260830223604 72 32 2.0 5.0 0.00 0.00 0.00 99 1013.2
20260830222404 72 33 1.0 3.0 0.00 0.00 0.00 99 1013.0
20260830221205 72 33 2.0 3.0 0.00 0.00 0.00 99 1013.2
20260830220004 72 189 0.0 0.0 0.00 0.00 0.00 99 1012.8
20260830214804 71 189 0.0 1.0 0.00 0.00 0.00 99 1012.7
20260830213604 71 189 1.0 2.0 0.00 0.00 0.00 99 1012.6
20260830212404 71 189 0.0 0.0 0.00 0.00 0.00 99 1012.8
20260830211203 70 189 0.0 0.0 0.00 0.00 0.00 99 1012.5
20260830210003 69 188 1.0 2.0 0.00 0.00 0.00 99 1012.6
20260830204804 69 183 1.0 1.0 0.00 0.00 0.00 99 1012.5
20260830203603 69 168 1.0 1.0 0.00 0.00 0.00 99 1012.2
20260830202403 69 168 0.0 0.0 0.00 0.00 0.00 99 1012.2
20260830201202 69 158 1.0 2.0 0.00 0.00 0.00 99 1012.0
20260830200004 69 98 0.0 0.0 0.00 0.00 0.00 99 1011.9
20260830194803 69 130 0.0 2.0 0.00 0.00 0.00 99 1011.5
20260830193604 69 35 0.0 0.0 0.00 0.00 0.00 99 1011.5
20260830192404 70 39 0.0 0.0 0.00 0.00 0.00 99 1011.3
20260830191203 69 137 0.0 0.0 0.00 0.00 0.00 99 1011.1
20260830190004 70 128 0.0 0.0 0.00 0.00 0.00 99 1011.3
20260830184804 70 299 0.0 0.0 0.00 0.00 0.00 99 1011.1
20260830183603 70 299 0.0 0.0 0.00 0.00 0.00 99 1010.9
20260830182404 70 299 0.0 1.0 0.00 0.00 0.00 99 1010.7
20260830181203 71 299 1.0 2.0 0.00 0.00 0.00 99 1011.1
20260830180003 70 299 0.0 0.0 0.00 0.00 0.00 99 1011.4
20260830174802 71 299 0.0 1.0 0.00 0.00 0.00 99 1011.3
20260830173603 71 299 1.0 1.0 0.00 0.00 0.00 99 1011.0
20260830172403 71 299 0.0 0.0 0.00 0.00 0.00 99 1010.9
20260830171204 71 299 0.0 1.0 0.00 0.00 0.00 99 1010.8
20260830170004 71 299 1.0 1.0 0.00 0.00 0.00 99 1010.9
20260830164804 71 299 0.0 1.0 0.00 0.00 0.00 99 1011.0
20260830163604 71 300 2.0 3.0 0.00 0.00 0.00 99 1010.9
20260830162403 71 302 2.0 2.0 0.00 0.00 0.00 99 1011.0
20260830161203 70 302 2.0 3.0 0.00 0.00 0.00 99 1010.7
20260830160003 71 304 1.0 2.0 0.00 0.00 0.00 99 1010.7
20260830154803 71 304 2.0 2.0 0.00 0.00 0.00 99 1010.8
20260830153604 71 306 1.0 2.0 0.00 0.00 0.00 99 1010.9
20260830152403 71 307 2.0 2.0 0.00 0.00 0.00 99 1011.0
20260830151203 71 304 2.0 2.0 0.00 0.00 0.00 99 1010.8
20260830150004 71 307 1.0 2.0 0.00 0.00 0.00 99 1010.9
20260830144803 71 310 0.0 0.0 0.00 0.00 0.00 99 1011.1
20260830143602 71 311 1.0 2.0 0.00 0.01 0.00 99 1011.2
20260830142403 71 312 1.0 2.0 0.00 0.01 0.00 99 1011.1
20260830141204 71 313 0.0 1.0 0.00 0.01 0.00 99 1010.9
20260830140003 71 313 1.0 1.0 0.00 0.01 0.00 99 1010.9
20260830134803 71 313 0.0 1.0 0.00 0.01 0.00 99 1010.9
20260830133604 71 313 1.0 2.0 0.00 0.01 0.00 99 1010.9
20260830132403 71 316 1.0 2.0 0.00 0.01 0.00 99 1010.7
20260830131204 71 316 1.0 1.0 0.00 0.01 0.00 99 1010.8
20260830130003 71 316 1.0 2.0 0.00 0.01 0.00 99 1010.6
20260830124804 71 316 0.0 0.0 0.00 0.01 0.00 99 1010.7
20260830123602 71 320 1.0 2.0 0.00 0.01 0.00 99 1011.2
20260830122404 71 341 0.0 0.0 0.00 0.01 0.00 99 1011.0
20260830121204 72 49 0.0 0.0 0.00 0.01 0.00 99 1011.0
20260830120003 72 49 0.0 0.0 0.00 0.01 0.00 99 1010.7
20260830114804 71 107 0.0 0.0 0.00 0.01 0.00 99 1010.6
20260830113603 71 49 0.0 0.0 0.00 0.01 0.00 99 1010.5
20260830112402 71 48 1.0 1.0 0.00 0.01 0.00 99 1010.3
20260830111204 72 49 0.0 0.0 0.00 0.01 0.00 99 1010.1